METEOR 2-11 DEB, 42456

Orbit data source: Space-Track

METEOR 2-11 DEB, 42456 is space debris in LEO originally from a launch on Thu, 05 Jul 1984 UTC launched from the Plesetsk Missile And Space Complex (PKMTR). Debris objects in space refer to the collection of defunct objects orbiting the Earth. Examples of debris include non-operational satellites, rocket bodies, and fragments generated from explosions, collisions, or faulty payload assembly.

Loading next visibility...
Identifier
42456, 1984-072S
Orbit
LEO
Country
Flag of CISCIS
Related business
Manufacturer
Unknown
Mission
Spacecraft
Bus & Motor
Unknown
Mass
Unknown
Launch date (UTC)
1984-07-05 (42 years ago)
Launch vehicle
Unknown
Launch site
Plesetsk Missile And Space Complex (PKMTR)
Object type
Payload
Rocket body
Debris
Shape & HBR
Unknown shape, 0.1 m
Radar Cross Section
Small (<0.1 m²)

Expand to show TLE details & history
Last TLE update: 4 days ago

TLE from 4 days ago
0 METEOR 2-11 DEB
1 42456U 84072S   26205.72192812  .00001699  00000-0  12197-2 0  9996
2 42456  82.5365 354.0143 0036768 262.4497  97.2493 13.96157111592898
Epoch: 2026-07-24T17:19Z
TLE epoch observation values (Epoch: 2026-07-24T17:19:34.589Z)
Latitude
0.00002°
Longitude
151.67569°
Altitude
913.529 km
Speed
7.393 km/s
True Right ascension
23h 36m 03s
True Declination
0° 00' 00"
Sunlit
Object was in full shadow at epoch
Visualization orbit readout
Latitude
Unknown
Longitude
Unknown
Altitude
Unknown
Speed
Unknown
Apparent Right ascension
Unknown
Apparent Declination
Unknown
Sunlit
N/A
Visualization observer readout
Local Sidereal Time
06:25:40
Azimuth
Unknown
Elevation
Unknown
Doppler factor
Unknown
Orbital elements
Apogee altitude
931.044 km
Perigee altitude
877.493 km
Semi-major axis
7,282.406 km
Eccentricity
0.00368
Inclination
82.5365°
RAAN
354.0143°
Arg. of periapsis
262.4497°
True anomaly
97.66702°
Mean anomaly
97.2493°
Eccentric anomaly
97.45818°
Mean motion
3.49246 °/min
Orbital period
103.08 mins
BSTAR
0.0012197
Loading maneuver chart data...
Computing Atmospheric mass density...
Loading historical data...
Loading historical data...
Loading historical data...
Loading historical data...
Loading historical data...
Loading historical data...
Loading historical data...

Documentation

Showing up to 5 results
|